Regional Weather Roundup
Issued by NWS

Home | Current Version | Previous Version | Text Only | Print | Product List | Glossary Off
Versions: 1 2 3 4 5 6 7 8 9 10 11 12 13 14 15 16 17 18 19 20 21 22 23 24 25 26 27 28 29 30 31 32 33 34 35 36 37 38 39 40 41 42 43 44 45 46 47 48 49 50

000
ASUS43 KMKX 210421
RWRWI

WISCONSIN REGIONAL WEATHER ROUNDUP
NATIONAL WEATHER SERVICE MILWAUKEE/SULLIVAN WI
1000 PM CST SAT DEC 20 2014

NOTE: "FAIR" INDICATES FEW OR NO CLOUDS BELOW 12,000 FEET WITH NO
SIGNIFICANT WEATHER AND/OR OBSTRUCTIONS TO VISIBILITY.

WIZ001-002-006>008-014>016-023>028-210500-
NORTHWEST WISCONSIN

CITY           SKY/WX    TMP DP  RH WIND       PRES   REMARKS
SUPERIOR ARPT  CLOUDY    32  28  83 SW7       30.09S WCI  26
ASHLAND        CLOUDY    31  26  82 S8        30.11F WCI  23
HAYWARD        CLOUDY    30  25  81 S7        30.09F HAZE    WCI  23
SIREN          CLOUDY    31  27  84 S7        30.10S WCI  25
CUMBERLAND     CLOUDY    30  28  93 S10       30.09F FOG     WCI  21
RICE LAKE      CLOUDY    31  28  88 S7        30.13S FOG     WCI  24
CHETEK         CLOUDY    31  28  88 SE8       30.12S WCI  23
LADYSMITH      CLOUDY    31  28  90 SE6       30.13F FOG     WCI  25
EAU CLAIRE     CLOUDY    30  28  92 S8        30.13F FOG     WCI  22
MENOMONIE      CLOUDY    31  30  94 SE7       30.13S FOG     WCI  24
NEW RICHMOND   CLOUDY    31  29  91 S15G21    30.11S WCI  20
OSCEOLA        CLOUDY    32  30  91 S14       30.13S WCI  22
$$

WIZ003>005-009-010-017-018-210500-
NORTH CENTRAL WISCONSIN

CITY           SKY/WX    TMP DP  RH WIND       PRES   REMARKS
MANITOWISH WTR CLOUDY    27  26  96 S6        30.10S WCI  21
ARBOR VITAE    CLOUDY    29  27  90 S8        30.11S WCI  21
WOODRUFF       CLOUDY    29  27  90 S8        30.11S WCI  21
RHINELANDER    CLOUDY    26  24  92 S7        30.13F WCI  18
EAGLE RIVER    CLOUDY    27  26  96 SE5       30.12F FOG     WCI  22
LAND O LAKES   CLOUDY    28  27  94 S5        30.12F WCI  23
PHILLIPS       CLOUDY    28  26  93 S7        30.11S FOG     WCI  20
TOMAHAWK       CLOUDY    27  25  91 CALM      30.13F FOG
MEDFORD        CLOUDY    28  26  94 S8        30.12F FOG     WCI  19
MERRILL        CLOUDY    28  26  89 S3        30.14F
$$

WIZ029-030-035-036-043>047-210500-
CENTRAL WISCONSIN

CITY           SKY/WX    TMP DP  RH WIND       PRES   REMARKS
WAUSAU         CLOUDY    29  25  85 S5        30.14F WCI  24
MOSINEE        CLOUDY    28  28 100 SE6       30.16F WCI  22
MARSHFIELD     CLOUDY    29  25  85 S8        30.14F FOG     WCI  21
STEVENS POINT  CLOUDY    27  25  91 SE3       30.17F
WAUPACA        CLOUDY    30  27  88 SE3       30.20F FOG
WAUTOMA        CLOUDY    30  28  92 S3        30.20F
WISC RAPIDS    CLOUDY    29  24  82 S3        30.18F
CAMP DOUGLAS   CLOUDY    29  29 100 SE7       30.17F WCI  22
$$

WIZ011>013-019>022-031-037>040-048>050-210500-
NORTHEAST WISCONSIN

CITY           SKY/WX    TMP DP  RH WIND       PRES   REMARKS
ANTIGO         CLOUDY    25  24  95 S5        30.15F FOG     WCI  19
SHAWANO        CLOUDY    30  26  84 CALM      30.21S HAZE
OCONTO         CLOUDY    27  26  96 CALM      30.21F
STURGEON BAY   CLOUDY    27  25  93 CALM      30.22F
GREEN BAY      CLOUDY    29  26  89 S3        30.22F FOG
MANITOWOC      CLOUDY    30  28  92 CALM      30.23S
APPLETON       CLOUDY    27  27 100 VRB3      30.21F FOG
CLINTONVILLE   CLOUDY    28  27  93 CALM      30.20F FOG
OSHKOSH        CLOUDY    28  25  88 CALM      30.21F FOG
$$

WIZ032>034-041-042-053>061-210500-
SOUTHWEST WISCONSIN

CITY           SKY/WX    TMP DP  RH WIND       PRES   REMARKS
LA CROSSE      CLOUDY    33  28  81 S7        30.16F WCI  27
SPARTA         CLOUDY    31  27  84 S7        30.17F FOG     WCI  24
VIROQUA        CLOUDY    29  29 100 SE8       30.14F WCI  21
BOSCOBEL       LGT SNOW  32  27  81 CALM      30.19F
PRAIRIE DU CHI CLOUDY    32  28  86 SE3       30.18F FOG
PLATTEVILLE    CLOUDY    31  29  93 CALM      30.19S
$$

WIZ056-057-062-063-064-067-068-210500-
SOUTH CENTRAL WISCONSIN

CITY           SKY/WX    TMP DP  RH WIND       PRES   REMARKS
REEDSBURG      CLOUDY    29  26  90 CALM      30.18S
BARABOO/DELLS  CLOUDY    29  26  87 S6        30.18S FOG     WCI  23
LONE ROCK      CLOUDY    34  26  72 E5        30.19F WCI  30
MINERAL POINT  CLOUDY    32  28  86 SE7       30.17S FOG     WCI  26
MADISON        CLOUDY    30  26  85 S8        30.20F WCI  22
MIDDLETON      CLOUDY    32  27  83 S3        30.20F
WATERTOWN      CLOUDY    29  28  96 S5        30.21F WCI  24
MONROE         CLOUDY    30  28  93 S6        30.19S WCI  24
JANESVILLE     CLOUDY    32  28  86 SE5       30.21S WCI  27
$$

WIZ051-052-058>065-066-070>072-210500-
SOUTHEAST WISCONSIN

CITY           SKY/WX    TMP DP  RH WIND       PRES   REMARKS
MILWAUKEE      CLOUDY    31  24  75 SW6       30.24S WCI  25
WAUKESHA       CLOUDY    30  27  86 S6        30.23S WCI  24
MILWAUKEE/TIMM CLOUDY    32  25  74 S3        30.24S
RACINE         CLOUDY    32  25  75 S7        30.26S WCI  26
BURLINGTON     CLOUDY    29  25  85 S3        30.23S
KENOSHA        CLOUDY    32  25  75 S5        30.24S WCI  27
FOND DU LAC    CLOUDY    30  26  85 S6        30.21F WCI  24
SHEBOYGAN      CLOUDY    29  25  85 CALM      30.22F
WEST BEND      CLOUDY    30  27  86 CALM      30.22S
JUNEAU         CLOUDY    29  27  91 SE6       30.22S FOG     WCI  23
$$

LSZ147-162-210500-
LAKE SUPERIOR

STATION/POSITION TIME  TEMP    WIND        PRES    WAVE
                       AIR SEA DIR/SP/G            HT/PER
                 (UTC) (F)     (DEG/KT/KT) (MB)    (FT/S)
DEVILS ISLAND    0400   32     200/ 10/ 14 1020.5F
PORT WING        0300   32     170/  6/  8 1019.3
SAXON HARBOR     0300   32      CALM  /  6 1020.3R
$$

LMZ867-665-643>646-210500-
LAKE MICHIGAN

STATION/POSITION TIME  TEMP    WIND        PRES    WAVE
                       AIR SEA DIR/SP/G            HT/PER
                 (UTC) (F)     (DEG/KT/KT) (MB)    (FT/S)
CHAMBERS ISLAND  0300   28      CALM  /  1 1023.7S
NORTHPORT PIER   0300   30     200/  2/  5 1023.4F
SISTER BAY       0313             CALM       N/A
ALGOMA LAKESHORE 0344          330/  5/  6   N/A
KEWAUNEE LAKESHO 0300   26     290/  1/  5 1022.6F
SHEBOYGAN LAKESH 0400   31 34  220/  5/  5 1024.5F
PORT WASHINGTON  0340   31     240/  2/  4 1024.4F
MILWAUKEE LAKESH 0400   32     230/  9/ 11   N/A
KENOSHA   LAKESH 0400   32     190/  4/  6 1024.0F
$$

TC  - TEMPERATURE IN CELSIUS
VSB - VISIBILITY IN STATUTE MILES
WCI - WIND CHILL INDEX
HX  - HEAT INDEX




USA.gov is the U.S. government's official web portal to all federal, state and local government web resources and services.